GLO2050 SBGL-SBCY

Flight info

Callsign GLO2050
Flight time 2h 16m
Altitude 36000
Route EDNAM UM409 MIMIP UL795 MOPIM DCT RODAD UM775 SINIP
Aircraft B738/M-SDE2E3FGHIRWXY/LB1

Departure

Time 2026-04-27 14:20
Airport Rio Galeão – Tom Jobim International Airport (SBGL)

Arrival

Time 2026-04-27 16:37
Airport Várzea Grande–Marechal Rondon International Airport (SBCY)
Time Latitude Longitude Altitude Speed Heading
2026-04-27 13:58 -22.81620 -43.24522 35 ft 0 kts 334°
2026-04-27 14:10 -22.81627 -43.24518 34 ft 2 kts 334°
2026-04-27 14:10 -22.81641 -43.24511 34 ft 2 kts 334°
2026-04-27 14:10 -22.81654 -43.24504 34 ft 2 kts 334°
2026-04-27 14:10 -22.81667 -43.24497 33 ft 1 kts 334°
2026-04-27 14:11 -22.81669 -43.24496 33 ft 0 kts 334°
2026-04-27 14:13 -22.81668 -43.24496 33 ft 0 kts 334°
2026-04-27 14:13 -22.81658 -43.24511 34 ft 4 kts 287°
2026-04-27 14:14 -22.81688 -43.24542 34 ft 10 kts 168°
2026-04-27 14:14 -22.81761 -43.24545 32 ft 11 kts 207°
2026-04-27 14:14 -22.81829 -43.24593 30 ft 12 kts 215°
2026-04-27 14:14 -22.81901 -43.24648 29 ft 13 kts 214°
2026-04-27 14:15 -22.81997 -43.24679 27 ft 15 kts 199°
2026-04-27 14:15 -22.82088 -43.24746 26 ft 16 kts 219°
2026-04-27 14:15 -22.82077 -43.24852 24 ft 16 kts 308°
2026-04-27 14:15 -22.82014 -43.24945 24 ft 14 kts 306°
2026-04-27 14:16 -22.81956 -43.25032 24 ft 14 kts 305°
2026-04-27 14:16 -22.81893 -43.25127 23 ft 16 kts 305°
2026-04-27 14:16 -22.81825 -43.25230 23 ft 17 kts 307°
2026-04-27 14:16 -22.81751 -43.25338 24 ft 18 kts 305°
2026-04-27 14:17 -22.81676 -43.25451 25 ft 18 kts 305°
2026-04-27 14:17 -22.81597 -43.25570 24 ft 20 kts 306°
2026-04-27 14:17 -22.81513 -43.25696 24 ft 21 kts 306°
2026-04-27 14:17 -22.81424 -43.25830 24 ft 22 kts 306°
2026-04-27 14:18 -22.81329 -43.25971 22 ft 24 kts 306°
2026-04-27 14:18 -22.81226 -43.26125 21 ft 25 kts 305°
2026-04-27 14:18 -22.81136 -43.26259 20 ft 13 kts 305°
2026-04-27 14:18 -22.81143 -43.26346 18 ft 12 kts 215°
2026-04-27 14:19 -22.81226 -43.26334 18 ft 11 kts 156°
2026-04-27 14:19 -22.81292 -43.26294 19 ft 9 kts 132°
2026-04-27 14:19 -22.81328 -43.26240 20 ft 9 kts 128°
2026-04-27 14:19 -22.81424 -43.26098 21 ft 52 kts 125°
2026-04-27 14:20 -22.81783 -43.25557 22 ft 122 kts 126°
2026-04-27 14:20 -22.82406 -43.24624 30 ft 180 kts 125°
2026-04-27 14:20 -22.83192 -43.23439 339 ft 203 kts 121°
2026-04-27 14:20 -22.83708 -43.22037 1218 ft 198 kts 96°
2026-04-27 14:21 -22.83658 -43.20608 1998 ft 197 kts 77°
2026-04-27 14:21 -22.83359 -43.19113 2484 ft 216 kts 75°
2026-04-27 14:21 -22.82896 -43.17533 3118 ft 216 kts 65°
2026-04-27 14:21 -22.82220 -43.16116 3665 ft 217 kts 57°
2026-04-27 14:22 -22.81381 -43.14684 4046 ft 228 kts 56°
2026-04-27 14:22 -22.80553 -43.13209 4554 ft 233 kts 58°
2026-04-27 14:22 -22.79719 -43.11631 4866 ft 249 kts 59°
2026-04-27 14:22 -22.78860 -43.09962 5204 ft 262 kts 60°
2026-04-27 14:23 -22.77950 -43.08193 5649 ft 276 kts 59°
2026-04-27 14:23 -22.77005 -43.06363 6365 ft 279 kts 60°
2026-04-27 14:23 -22.76029 -43.04557 7062 ft 282 kts 54°
2026-04-27 14:23 -22.74720 -43.02992 7710 ft 284 kts 33°
2026-04-27 14:24 -22.72933 -43.02132 8380 ft 285 kts 13°
2026-04-27 14:24 -22.70983 -43.01673 9069 ft 288 kts 10°
2026-04-27 14:24 -22.68997 -43.01258 9768 ft 290 kts
2026-04-27 14:24 -22.66991 -43.01066 10393 ft 294 kts 357°
2026-04-27 14:25 -22.64950 -43.01449 10742 ft 307 kts 341°
2026-04-27 14:25 -22.62902 -43.02246 11112 ft 320 kts 338°
2026-04-27 14:25 -22.60768 -43.03163 11454 ft 334 kts 337°
2026-04-27 14:25 -22.58571 -43.04097 11775 ft 349 kts 338°
2026-04-27 14:26 -22.56247 -43.05052 12131 ft 362 kts 338°
2026-04-27 14:26 -22.53846 -43.06012 12719 ft 367 kts 339°
2026-04-27 14:26 -22.51453 -43.06954 13324 ft 370 kts 339°
2026-04-27 14:26 -22.48997 -43.07916 13868 ft 376 kts 339°
2026-04-27 14:27 -22.46534 -43.08879 14056 ft 381 kts 339°
2026-04-27 14:27 -22.44032 -43.09858 14658 ft 385 kts 338°
2026-04-27 14:27 -22.41513 -43.10843 15010 ft 384 kts 338°
2026-04-27 14:27 -22.38996 -43.11829 15069 ft 383 kts 338°
2026-04-27 14:28 -22.36492 -43.12810 15075 ft 380 kts 338°
2026-04-27 14:28 -22.33984 -43.13799 15105 ft 386 kts 338°
2026-04-27 14:28 -22.31490 -43.14965 15695 ft 388 kts 333°
2026-04-27 14:28 -22.29094 -43.16268 16332 ft 390 kts 330°
2026-04-27 14:29 -22.26680 -43.17657 16920 ft 393 kts 329°
2026-04-27 14:29 -22.24280 -43.19045 17454 ft 398 kts 329°
2026-04-27 14:29 -22.21810 -43.20452 18036 ft 400 kts 330°
2026-04-27 14:29 -22.19349 -43.21826 18596 ft 403 kts 330°
2026-04-27 14:30 -22.16825 -43.23215 19162 ft 405 kts 330°
2026-04-27 14:30 -22.14332 -43.24572 19688 ft 407 kts 330°
2026-04-27 14:30 -22.11772 -43.25960 20246 ft 409 kts 331°
2026-04-27 14:30 -22.09226 -43.27338 20733 ft 412 kts 330°
2026-04-27 14:31 -22.06649 -43.28731 21238 ft 415 kts 330°
2026-04-27 14:31 -22.04074 -43.30123 21749 ft 416 kts 330°
2026-04-27 14:31 -22.01483 -43.31525 22214 ft 419 kts 330°
2026-04-27 14:31 -21.98856 -43.32945 22694 ft 422 kts 330°
2026-04-27 14:32 -21.96234 -43.34363 23171 ft 424 kts 330°
2026-04-27 14:32 -21.93598 -43.35789 23656 ft 427 kts 330°
2026-04-27 14:32 -21.90948 -43.37221 24147 ft 428 kts 331°
2026-04-27 14:32 -21.88258 -43.38674 24598 ft 430 kts 331°
2026-04-27 14:33 -21.85589 -43.40117 25072 ft 432 kts 331°
2026-04-27 14:33 -21.82889 -43.41575 25517 ft 434 kts 331°
2026-04-27 14:33 -21.80205 -43.43047 25971 ft 435 kts 330°
2026-04-27 14:33 -21.77543 -43.44622 26371 ft 438 kts 328°
2026-04-27 14:34 -21.74906 -43.46266 26817 ft 439 kts 328°
2026-04-27 14:34 -21.72275 -43.47942 27255 ft 441 kts 328°
2026-04-27 14:34 -21.69639 -43.49628 27672 ft 442 kts 328°
2026-04-27 14:34 -21.66975 -43.51328 28050 ft 445 kts 328°
2026-04-27 14:35 -21.64321 -43.53012 28449 ft 446 kts 328°
2026-04-27 14:35 -21.61633 -43.54708 29063 ft 443 kts 328°
2026-04-27 14:35 -21.58989 -43.56369 29639 ft 440 kts 328°
2026-04-27 14:35 -21.56344 -43.58025 30065 ft 440 kts 328°
2026-04-27 14:36 -21.53712 -43.59665 30527 ft 439 kts 328°
2026-04-27 14:36 -21.51079 -43.61300 30977 ft 438 kts 328°
2026-04-27 14:36 -21.48455 -43.62926 31397 ft 437 kts 328°
2026-04-27 14:36 -21.45821 -43.64558 31791 ft 437 kts 328°
2026-04-27 14:37 -21.43151 -43.66210 32189 ft 437 kts 328°
2026-04-27 14:37 -21.40506 -43.67847 32596 ft 436 kts 328°
2026-04-27 14:37 -21.37897 -43.69459 32979 ft 435 kts 328°
2026-04-27 14:37 -21.35249 -43.71096 33368 ft 435 kts 328°
2026-04-27 14:38 -21.32628 -43.72716 33828 ft 433 kts 328°
2026-04-27 14:38 -21.30019 -43.74329 34234 ft 432 kts 328°
2026-04-27 14:38 -21.27428 -43.75929 34636 ft 430 kts 328°
2026-04-27 14:38 -21.24836 -43.77546 34999 ft 429 kts 327°
2026-04-27 14:39 -21.22264 -43.79199 35387 ft 428 kts 327°
2026-04-27 14:39 -21.19746 -43.80845 35724 ft 427 kts 327°
2026-04-27 14:39 -21.17214 -43.82509 36008 ft 427 kts 327°
2026-04-27 14:39 -21.14658 -43.84191 36221 ft 428 kts 327°
2026-04-27 14:40 -21.12114 -43.85862 36210 ft 430 kts 327°
2026-04-27 14:40 -21.07041 -43.89182 36198 ft 427 kts 327°
2026-04-27 14:41 -21.01978 -43.92482 36198 ft 426 kts 327°
2026-04-27 14:41 -20.96893 -43.95789 36189 ft 427 kts 327°
2026-04-27 14:42 -20.91821 -43.99084 36183 ft 427 kts 327°
2026-04-27 14:42 -20.86724 -44.02391 36183 ft 428 kts 327°
2026-04-27 14:43 -20.81616 -44.05703 36183 ft 429 kts 327°
2026-04-27 14:43 -20.76515 -44.09007 36182 ft 429 kts 327°
2026-04-27 14:44 -20.71429 -44.12322 36183 ft 429 kts 327°
2026-04-27 14:44 -20.66330 -44.15653 36176 ft 429 kts 327°
2026-04-27 14:45 -20.61243 -44.18965 36172 ft 429 kts 327°
2026-04-27 14:45 -20.56114 -44.22267 36168 ft 430 kts 327°
2026-04-27 14:46 -20.51005 -44.25543 36163 ft 430 kts 327°
2026-04-27 14:46 -20.45886 -44.28824 36161 ft 430 kts 327°
2026-04-27 14:47 -20.40744 -44.32124 36160 ft 430 kts 327°
2026-04-27 14:47 -20.35607 -44.35428 36161 ft 430 kts 327°
2026-04-27 14:48 -20.30496 -44.38715 36161 ft 429 kts 327°
2026-04-27 14:48 -20.22805 -44.43657 36159 ft 431 kts 327°
2026-04-27 14:49 -20.17649 -44.46966 36157 ft 432 kts 327°
2026-04-27 14:49 -20.12491 -44.50274 36158 ft 432 kts 327°
2026-04-27 14:50 -20.07340 -44.53574 36156 ft 432 kts 327°
2026-04-27 14:50 -20.02224 -44.56849 36154 ft 431 kts 327°
2026-04-27 14:51 -19.97081 -44.60139 36148 ft 431 kts 327°
2026-04-27 14:51 -19.92781 -44.62889 36147 ft 432 kts 327°
2026-04-27 14:52 -19.86762 -44.66736 36142 ft 434 kts 328°
2026-04-27 14:52 -19.81555 -44.70061 36145 ft 434 kts 328°
2026-04-27 14:53 -19.76395 -44.73352 36145 ft 433 kts 328°
2026-04-27 14:53 -19.71201 -44.76663 36144 ft 434 kts 328°
2026-04-27 14:54 -19.66052 -44.79942 36141 ft 433 kts 328°
2026-04-27 14:54 -19.60850 -44.83254 36135 ft 434 kts 328°
2026-04-27 14:55 -19.55929 -44.86861 36129 ft 433 kts 316°
2026-04-27 14:55 -19.52227 -44.91888 36123 ft 434 kts 299°
2026-04-27 14:56 -19.49780 -44.97683 36110 ft 434 kts 291°
2026-04-27 14:56 -19.47775 -45.03710 36107 ft 434 kts 290°
2026-04-27 14:57 -19.45838 -45.09777 36109 ft 434 kts 290°
2026-04-27 14:57 -19.43877 -45.15820 36110 ft 435 kts 290°
2026-04-27 14:58 -19.41880 -45.21869 36113 ft 436 kts 290°
2026-04-27 14:58 -19.39873 -45.27891 36112 ft 436 kts 290°
2026-04-27 14:59 -19.37843 -45.33956 36116 ft 436 kts 290°
2026-04-27 14:59 -19.35819 -45.39991 36117 ft 435 kts 290°
2026-04-27 15:00 -19.33808 -45.45976 36122 ft 435 kts 290°
2026-04-27 15:00 -19.31778 -45.52009 36128 ft 436 kts 290°
2026-04-27 15:01 -19.29754 -45.58016 36129 ft 436 kts 290°
2026-04-27 15:01 -19.27715 -45.64058 36135 ft 436 kts 290°
2026-04-27 15:02 -19.25676 -45.70095 36139 ft 437 kts 291°
2026-04-27 15:02 -19.23640 -45.76115 36152 ft 437 kts 290°
2026-04-27 15:03 -19.21585 -45.82180 36160 ft 435 kts 290°
2026-04-27 15:03 -19.19545 -45.88197 36170 ft 437 kts 290°
2026-04-27 15:04 -19.17504 -45.94205 36181 ft 436 kts 290°
2026-04-27 15:04 -19.15450 -46.00251 36177 ft 436 kts 290°
2026-04-27 15:05 -19.13406 -46.06271 36190 ft 436 kts 290°
2026-04-27 15:05 -19.11363 -46.12280 36190 ft 437 kts 290°
2026-04-27 15:06 -19.09300 -46.18341 36189 ft 437 kts 290°
2026-04-27 15:06 -19.07251 -46.24353 36185 ft 436 kts 291°
2026-04-27 15:07 -19.05197 -46.30375 36178 ft 437 kts 291°
2026-04-27 15:07 -19.03143 -46.36383 36174 ft 437 kts 291°
2026-04-27 15:08 -19.01067 -46.42450 36171 ft 438 kts 291°
2026-04-27 15:08 -18.98996 -46.48499 36168 ft 437 kts 291°
2026-04-27 15:09 -18.96934 -46.54511 36165 ft 438 kts 290°
2026-04-27 15:09 -18.94863 -46.60542 36166 ft 438 kts 290°
2026-04-27 15:10 -18.92806 -46.66587 36165 ft 437 kts 290°
2026-04-27 15:10 -18.90865 -46.72641 36167 ft 438 kts 289°
2026-04-27 15:11 -18.88944 -46.78748 36170 ft 438 kts 289°
2026-04-27 15:11 -18.87029 -46.84818 36169 ft 439 kts 289°
2026-04-27 15:12 -18.85090 -46.90919 36171 ft 440 kts 289°
2026-04-27 15:12 -18.83143 -46.97021 36172 ft 439 kts 289°
2026-04-27 15:13 -18.81195 -47.03109 36174 ft 439 kts 289°
2026-04-27 15:13 -18.79231 -47.09235 36172 ft 439 kts 289°
2026-04-27 15:14 -18.77290 -47.15280 36165 ft 438 kts 289°
2026-04-27 15:14 -18.75326 -47.21389 36159 ft 438 kts 289°
2026-04-27 15:15 -18.73373 -47.27452 36156 ft 439 kts 289°
2026-04-27 15:15 -18.71419 -47.33513 36156 ft 438 kts 289°
2026-04-27 15:16 -18.69461 -47.39583 36154 ft 438 kts 289°
2026-04-27 15:16 -18.67490 -47.45685 36154 ft 439 kts 289°
2026-04-27 15:17 -18.65527 -47.51754 36151 ft 440 kts 289°
2026-04-27 15:17 -18.63542 -47.57881 36146 ft 439 kts 289°
2026-04-27 15:18 -18.61583 -47.63919 36139 ft 440 kts 289°
2026-04-27 15:18 -18.59605 -47.70015 36133 ft 439 kts 290°
2026-04-27 15:19 -18.57623 -47.76110 36127 ft 439 kts 290°
2026-04-27 15:19 -18.55660 -47.82141 36123 ft 439 kts 290°
2026-04-27 15:20 -18.53685 -47.88203 36116 ft 439 kts 290°
2026-04-27 15:20 -18.51694 -47.94308 36112 ft 439 kts 290°
2026-04-27 15:21 -18.49707 -48.00390 36110 ft 441 kts 290°
2026-04-27 15:21 -18.47722 -48.06457 36124 ft 439 kts 290°
2026-04-27 15:22 -18.45742 -48.12503 36133 ft 439 kts 290°
2026-04-27 15:22 -18.43750 -48.18579 36140 ft 438 kts 290°
2026-04-27 15:23 -18.41760 -48.24642 36144 ft 439 kts 290°
2026-04-27 15:23 -18.39774 -48.30688 36139 ft 439 kts 290°
2026-04-27 15:24 -18.37786 -48.36743 36132 ft 439 kts 289°
2026-04-27 15:24 -18.35791 -48.42810 36126 ft 438 kts 289°
2026-04-27 15:25 -18.33801 -48.48856 36123 ft 439 kts 289°
2026-04-27 15:25 -18.31818 -48.54875 36117 ft 438 kts 289°
2026-04-27 15:26 -18.29815 -48.60943 36115 ft 438 kts 290°
2026-04-27 15:26 -18.27821 -48.66970 36111 ft 438 kts 290°
2026-04-27 15:27 -18.25816 -48.73024 36107 ft 439 kts 290°
2026-04-27 15:27 -18.23807 -48.79079 36101 ft 438 kts 290°
2026-04-27 15:28 -18.21814 -48.85084 36098 ft 437 kts 290°
2026-04-27 15:28 -18.19813 -48.91102 36087 ft 437 kts 290°
2026-04-27 15:29 -18.17807 -48.97124 36080 ft 437 kts 290°
2026-04-27 15:29 -18.15800 -49.03136 36080 ft 437 kts 290°
2026-04-27 15:30 -18.13792 -49.09149 36082 ft 438 kts 290°
2026-04-27 15:30 -18.11773 -49.15186 36085 ft 438 kts 290°
2026-04-27 15:31 -18.09753 -49.21217 36092 ft 439 kts 290°
2026-04-27 15:31 -18.07732 -49.27253 36096 ft 438 kts 290°
2026-04-27 15:32 -18.05716 -49.33271 36093 ft 437 kts 290°
2026-04-27 15:32 -18.03700 -49.39284 36093 ft 438 kts 290°
2026-04-27 15:33 -18.01684 -49.45288 36089 ft 437 kts 290°
2026-04-27 15:33 -17.99667 -49.51287 36078 ft 438 kts 290°
2026-04-27 15:34 -17.97635 -49.57325 36079 ft 438 kts 290°
2026-04-27 15:34 -17.95606 -49.63347 36079 ft 437 kts 290°
2026-04-27 15:35 -17.93586 -49.69331 36078 ft 438 kts 290°
2026-04-27 15:35 -17.91554 -49.75348 36076 ft 437 kts 290°
2026-04-27 15:36 -17.89521 -49.81360 36078 ft 439 kts 290°
2026-04-27 15:36 -17.87482 -49.87386 36081 ft 438 kts 290°
2026-04-27 15:37 -17.85450 -49.93381 36085 ft 437 kts 290°
2026-04-27 15:37 -17.83415 -49.99375 36081 ft 438 kts 290°
2026-04-27 15:38 -17.81367 -50.05403 36079 ft 438 kts 290°
2026-04-27 15:38 -17.79331 -50.11390 36074 ft 438 kts 290°
2026-04-27 15:39 -17.77625 -50.17529 36072 ft 439 kts 283°
2026-04-27 15:39 -17.76417 -50.23810 36071 ft 439 kts 281°
2026-04-27 15:40 -17.75326 -50.30065 36073 ft 439 kts 281°
2026-04-27 15:40 -17.74210 -50.36360 36076 ft 438 kts 281°
2026-04-27 15:41 -17.73060 -50.42654 36081 ft 439 kts 281°
2026-04-27 15:41 -17.71904 -50.48882 36079 ft 438 kts 282°
2026-04-27 15:42 -17.70728 -50.55161 36083 ft 438 kts 282°
2026-04-27 15:42 -17.69553 -50.61409 36093 ft 438 kts 282°
2026-04-27 15:43 -17.68375 -50.67664 36097 ft 438 kts 282°
2026-04-27 15:43 -17.67202 -50.73877 36106 ft 438 kts 282°
2026-04-27 15:44 -17.66017 -50.80140 36107 ft 438 kts 282°
2026-04-27 15:44 -17.64835 -50.86380 36116 ft 437 kts 282°
2026-04-27 15:45 -17.63647 -50.92639 36129 ft 438 kts 282°
2026-04-27 15:45 -17.62460 -50.98885 36136 ft 437 kts 282°
2026-04-27 15:46 -17.61279 -51.05082 36134 ft 437 kts 282°
2026-04-27 15:46 -17.60087 -51.11333 36128 ft 437 kts 282°
2026-04-27 15:47 -17.58896 -51.17564 36122 ft 438 kts 282°
2026-04-27 15:47 -17.57704 -51.23792 36122 ft 437 kts 282°
2026-04-27 15:48 -17.56507 -51.30033 36124 ft 438 kts 282°
2026-04-27 15:49 -17.54707 -51.39391 36130 ft 437 kts 282°
2026-04-27 15:49 -17.53512 -51.45599 36136 ft 437 kts 282°
2026-04-27 15:50 -17.52302 -51.51868 36139 ft 438 kts 282°
2026-04-27 15:50 -17.51103 -51.58071 36141 ft 437 kts 282°
2026-04-27 15:51 -17.49889 -51.64338 36143 ft 437 kts 282°
2026-04-27 15:51 -17.48690 -51.70520 36144 ft 437 kts 282°
2026-04-27 15:52 -17.47478 -51.76754 36144 ft 437 kts 282°
2026-04-27 15:52 -17.46266 -51.82979 36141 ft 436 kts 282°
2026-04-27 15:53 -17.45052 -51.89206 36137 ft 437 kts 282°
2026-04-27 15:53 -17.43838 -51.95418 36132 ft 437 kts 282°
2026-04-27 15:54 -17.42620 -52.01642 36129 ft 437 kts 282°
2026-04-27 15:54 -17.41405 -52.07843 36127 ft 436 kts 282°
2026-04-27 15:55 -17.40190 -52.14026 36128 ft 437 kts 282°
2026-04-27 15:55 -17.38959 -52.20285 36124 ft 437 kts 282°
2026-04-27 15:56 -17.37739 -52.26480 36119 ft 436 kts 282°
2026-04-27 15:56 -17.36520 -52.32654 36114 ft 436 kts 282°
2026-04-27 15:57 -17.35292 -52.38868 36111 ft 436 kts 282°
2026-04-27 15:57 -17.34062 -52.45074 36107 ft 435 kts 282°
2026-04-27 15:58 -17.32838 -52.51245 36105 ft 436 kts 282°
2026-04-27 15:58 -17.31602 -52.57466 36099 ft 435 kts 282°
2026-04-27 15:59 -17.30374 -52.63633 36093 ft 435 kts 282°
2026-04-27 15:59 -17.29138 -52.69830 36085 ft 436 kts 282°
2026-04-27 16:00 -17.27907 -52.75997 36078 ft 435 kts 282°
2026-04-27 16:00 -17.26666 -52.82203 36087 ft 435 kts 282°
2026-04-27 16:01 -17.25429 -52.88374 36095 ft 436 kts 282°
2026-04-27 16:01 -17.24191 -52.94541 36104 ft 435 kts 282°
2026-04-27 16:02 -17.22952 -53.00708 36109 ft 434 kts 282°
2026-04-27 16:02 -17.21708 -53.06883 36101 ft 435 kts 282°
2026-04-27 16:03 -17.20466 -53.13042 36091 ft 434 kts 282°
2026-04-27 16:03 -17.19222 -53.19198 36085 ft 434 kts 282°
2026-04-27 16:04 -17.17969 -53.25389 36085 ft 435 kts 282°
2026-04-27 16:04 -17.16717 -53.31562 36085 ft 435 kts 282°
2026-04-27 16:05 -17.15464 -53.37734 36086 ft 435 kts 282°
2026-04-27 16:05 -17.14208 -53.43911 36085 ft 435 kts 282°
2026-04-27 16:06 -17.12956 -53.50061 36090 ft 434 kts 282°
2026-04-27 16:06 -17.11702 -53.56205 36088 ft 434 kts 282°
2026-04-27 16:07 -17.10412 -53.62377 36086 ft 434 kts 283°
2026-04-27 16:07 -17.08582 -53.68330 36086 ft 434 kts 293°
2026-04-27 16:08 -17.05906 -53.73972 36083 ft 434 kts 297°
2026-04-27 16:08 -17.02981 -53.79485 36080 ft 435 kts 298°
2026-04-27 16:09 -17.00037 -53.84976 36077 ft 435 kts 298°
2026-04-27 16:09 -16.95644 -53.93255 36072 ft 435 kts 298°
2026-04-27 16:10 -16.89816 -54.04331 36060 ft 435 kts 297°
2026-04-27 16:11 -16.85471 -54.12602 36048 ft 436 kts 298°
2026-04-27 16:12 -16.81101 -54.20912 36021 ft 436 kts 298°
2026-04-27 16:13 -16.76725 -54.29224 36007 ft 436 kts 298°
2026-04-27 16:13 -16.72339 -54.37543 35999 ft 436 kts 298°
2026-04-27 16:14 -16.66491 -54.48620 35993 ft 437 kts 297°
2026-04-27 16:15 -16.60631 -54.59700 35991 ft 436 kts 298°
2026-04-27 16:16 -16.57715 -54.65212 35668 ft 432 kts 298°
2026-04-27 16:16 -16.54903 -54.70661 34519 ft 428 kts 297°
2026-04-27 16:17 -16.52119 -54.76129 33001 ft 430 kts 297°
2026-04-27 16:17 -16.49308 -54.81647 31446 ft 436 kts 298°
2026-04-27 16:18 -16.46424 -54.87285 29733 ft 443 kts 298°
2026-04-27 16:18 -16.43553 -54.92883 28373 ft 442 kts 299°
2026-04-27 16:19 -16.42098 -54.95719 27737 ft 440 kts 299°
2026-04-27 16:19 -16.40663 -54.98515 27191 ft 436 kts 299°
2026-04-27 16:20 -16.36449 -55.06720 25595 ft 425 kts 300°
2026-04-27 16:20 -16.35064 -55.09410 25056 ft 421 kts 300°
2026-04-27 16:20 -16.32322 -55.14739 23939 ft 414 kts 300°
2026-04-27 16:21 -16.30965 -55.17374 23360 ft 411 kts 300°
2026-04-27 16:21 -16.26980 -55.25105 21775 ft 400 kts 300°
2026-04-27 16:22 -16.25672 -55.27640 21264 ft 397 kts 300°
2026-04-27 16:22 -16.23083 -55.32649 20199 ft 392 kts 300°
2026-04-27 16:22 -16.21799 -55.35133 19671 ft 389 kts 300°
2026-04-27 16:23 -16.20527 -55.37593 19147 ft 387 kts 299°
2026-04-27 16:23 -16.17991 -55.42498 18048 ft 381 kts 298°
2026-04-27 16:23 -16.16761 -55.44880 17186 ft 377 kts 298°
2026-04-27 16:24 -16.15520 -55.47281 16328 ft 373 kts 298°
2026-04-27 16:24 -16.13095 -55.51963 14574 ft 366 kts 298°
2026-04-27 16:25 -16.10727 -55.56529 12860 ft 359 kts 297°
2026-04-27 16:25 -16.08401 -55.61019 11219 ft 350 kts 298°
2026-04-27 16:26 -16.06182 -55.65306 10452 ft 316 kts 299°
2026-04-27 16:26 -16.04231 -55.69072 10193 ft 283 kts 299°
2026-04-27 16:27 -16.02397 -55.72607 9576 ft 275 kts 299°
2026-04-27 16:27 -15.99710 -55.77780 8564 ft 266 kts 300°
2026-04-27 16:28 -15.97998 -55.81073 7892 ft 254 kts 300°
2026-04-27 16:28 -15.96351 -55.84241 7252 ft 243 kts 300°
2026-04-27 16:29 -15.94007 -55.88750 6359 ft 230 kts 300°
2026-04-27 16:30 -15.92524 -55.91605 5782 ft 220 kts 300°
2026-04-27 16:30 -15.91093 -55.94360 5246 ft 212 kts 300°
2026-04-27 16:31 -15.89099 -55.98138 5007 ft 191 kts 305°
2026-04-27 16:31 -15.87189 -56.00010 4687 ft 189 kts 330°
2026-04-27 16:32 -15.84895 -56.01291 4255 ft 185 kts 333°
2026-04-27 16:32 -15.83754 -56.01900 4053 ft 186 kts 333°
2026-04-27 16:33 -15.81439 -56.03128 3836 ft 187 kts 334°
2026-04-27 16:33 -15.80284 -56.03737 3550 ft 181 kts 334°
2026-04-27 16:33 -15.79201 -56.04313 3295 ft 173 kts 333°
2026-04-27 16:33 -15.78131 -56.04880 3093 ft 172 kts 333°
2026-04-27 16:34 -15.77052 -56.05451 2855 ft 170 kts 333°
2026-04-27 16:34 -15.76010 -56.06001 2694 ft 166 kts 333°
2026-04-27 16:34 -15.75008 -56.06533 2393 ft 156 kts 333°
2026-04-27 16:34 -15.74071 -56.07030 2266 ft 152 kts 333°
2026-04-27 16:35 -15.73127 -56.07526 2040 ft 151 kts 333°
2026-04-27 16:35 -15.72191 -56.08026 1856 ft 148 kts 333°
2026-04-27 16:35 -15.70343 -56.08997 1468 ft 148 kts 332°
2026-04-27 16:36 -15.69433 -56.09487 1286 ft 147 kts 332°
2026-04-27 16:36 -15.68515 -56.09955 1099 ft 147 kts 334°
2026-04-27 16:36 -15.67600 -56.10444 915 ft 147 kts 332°
2026-04-27 16:36 -15.66693 -56.10920 736 ft 146 kts 333°
2026-04-27 16:37 -15.65778 -56.11412 599 ft 145 kts 333°
2026-04-27 16:37 -15.64968 -56.11844 612 ft 102 kts 334°
2026-04-27 16:37 -15.64613 -56.12033 622 ft 37 kts 333°
2026-04-27 16:37 -15.64453 -56.12130 627 ft 18 kts 308°
2026-04-27 16:38 -15.64407 -56.12171 629 ft 6 kts 27°
2026-04-27 16:38 -15.64421 -56.12132 628 ft 8 kts 149°
2026-04-27 16:38 -15.64505 -56.12088 625 ft 20 kts 153°
2026-04-27 16:38 -15.64654 -56.12008 621 ft 25 kts 153°
2026-04-27 16:39 -15.64823 -56.11921 616 ft 28 kts 152°
2026-04-27 16:39 -15.64979 -56.11837 612 ft 14 kts 152°
2026-04-27 16:39 -15.65051 -56.11816 610 ft 9 kts 218°
2026-04-27 16:39 -15.65083 -56.11871 611 ft 8 kts 250°
2026-04-27 16:40 -15.65062 -56.11917 612 ft 7 kts 322°
2026-04-27 16:40 -15.65023 -56.11942 613 ft 5 kts 332°
2026-04-27 16:40 -15.64990 -56.11959 614 ft 4 kts 333°
2026-04-27 16:40 -15.64973 -56.11974 615 ft 2 kts 287°
2026-04-27 16:41 -15.64974 -56.11988 615 ft 2 kts 255°
2026-04-27 16:41 -15.64982 -56.12008 615 ft 3 kts 245°
2026-04-27 16:41 -15.64986 -56.12017 615 ft 0 kts 244°